Overview Statistics Trail Chart Weather Telemetry Raw packets
 

This is the latest recevied weather packets stored in our database for station/object ED4YAF-13. If no packets are shown the sender has not sent any weather packets the latest 10 day(s).

<< 23 24 25 26 27 28 29 >>
Time Temp. Humidity Pressure Rain* Wind** Luminosity Snow
1788035200 16.11° C 35% 1018.2 hPa - - - -
1788034300 16.11° C 34% 1018 hPa - - - -
1788033400 16.11° C 34% 1017.8 hPa - - - -
1788032500 16.67° C 33% 1017.5 hPa - - - -
1788031600 16.67° C 33% 1017 hPa - - - -
1788030697 17.22° C 33% 1016.8 hPa - - - -
1788029797 17.22° C 32% 1016.3 hPa - - - -
1788028184 18.89° C 30% 1015.2 hPa - - - -
1788027520 20° C 28% 1014.5 hPa - - - -
1788027284 20° C 28% 1014.5 hPa - - - -
1788026376 20.56° C 28% 1014.2 hPa - - - -
1788025476 20.56° C 28% 1013.9 hPa - - - -
1788024580 21.67° C 27% 1013.1 hPa - - - -
1788023671 21.67° C 27% 1013.2 hPa - - - -
1788023002 21.67° C 27% 1013 hPa - - - -
1788022765 21.67° C 27% 1013 hPa - - - -
1788021865 22.22° C 27% 1012.7 hPa - - - -
1788020933 22.22° C 27% 1012.8 hPa - - - -
1788020416 22.78° C 26% 1012.5 hPa - - - -
1788020033 22.78° C 26% 1012.5 hPa - - - -
1788019128 22.78° C 26% 1012.8 hPa - - - -
1788018221 22.78° C 25% 1012.4 hPa - - - -
1788017321 23.33° C 25% 1012.5 hPa - - - -
1788016421 23.33° C 24% 1012.4 hPa - - - -
1788015517 23.33° C 25% 1012.4 hPa - - - -

* Rain since midnight (hover to see other rain measurements)
** Current wind speed in m/s (hover to see current wind gust speed)